TIANMU-1 10

Last updated on Wed Jul 02 2025 00:02:22 GMT+0000 (Coordinated Universal Time)

1 57402U 23101D 25182.56856616 .00004726 45040-8 18831-3 0 9990 2 57402 97.3120 236.2572 0005717 310.2093 49.8644 15.25246024108103
UTC large
Height (km)
Speed (km/s)
/
Latitude / Longitude
Inclination (degrees)
Orbital Period (minutes)
Azimuth
Elevation
Range (km)
Doppler Factor

Next 0 passes for location: London (51.5072 / 0.1276)

Sorry there are no passes over London.